Location: Newark
(44.1667°N, 8.2500°E)
Time: 14:39:17
(UTC+00:00)

S-56A Canister/Altair - Pass Details

Date: 13 December 2019
Orbit: 634 x 2498 km, 38.9° (Epoch: 25 January)

Event Time Altitude Azimuth Distance (km) Brightness Sun altitude
Rises 06:13:13 0° 187° (S) 5,063 12.0 -7.2°
Reaches altitude 10° 06:17:28 10° 172° (S) 4,371 11.9 -6.5°
Maximum altitude 06:25:46 21° 130° (SE) 3,976 12.4 -5.1°
Drops below altitude 10° 06:35:17 10° 89° (E) 5,123 12.8 -3.6°
Sets 06:40:48 0° 76° (ENE) 6,181 12.9 -2.8°
